Location: Balmoral
(33.0667°S, 151.5833°E)
Time: 03:23:35
(UTC+00:00)

Cosmos 1980 - Pass Details

Date: 18 September 2020
Orbit: 837 x 849 km, 71.0° (Epoch: 23 October)

Event Time Altitude Azimuth Distance (km) Brightness Sun altitude
Rises 18:32:56 0° 196° (SSW) 3,420 6.8 -16.4°
Reaches altitude 10° 18:35:27 10° 191° (S) 2,478 6.1 -15.9°
Maximum altitude 18:41:02 55° 113° (ESE) 1,010 4.5 -14.7°
Drops below altitude 10° 18:46:32 10° 35° (NE) 2,452 6.5 -13.6°
Sets 18:49:01 0° 31° (NNE) 3,380 7.2 -13.0°
